DELTA 1 DEB, 42563

Orbit data source: Space-Track

DELTA 1 DEB, 42563 is space debris in SSO originally from a launch on Sun, 23 Jul 1972 UTC launched from the Air Force Western Test Range (AFWTR). Debris objects in space refer to the collection of defunct objects orbiting the Earth. Examples of debris include non-operational satellites, rocket bodies, and fragments generated from explosions, collisions, or faulty payload assembly.

Loading next visibility...
Identifier
42563, 1972-058JW
Orbit
SSO
Country
Flag of USUS
Related business
Manufacturer
Unknown
Mission
Spacecraft
Bus & Motor
Unknown
Mass
Unknown
Launch date (UTC)
1972-07-23 (53 years ago)
Launch vehicle
Unknown
Launch site
Air Force Western Test Range (AFWTR)
Object type
Payload
Rocket body
Debris
Shape & HBR
Unknown shape, 0.1 m
Radar Cross Section
Small (<0.1 m²)

Expand to show TLE details & history
Last TLE update: 11 hours ago

TLE from 11 hours ago
0 DELTA 1 DEB
1 42563U 72058JW  25312.81693212  .00000612  00000-0  54829-3 0  9997
2 42563  98.8121  83.3585 0248053 286.6336  70.7715 13.74897310593422
Epoch: 2025-11-08T19:36Z
TLE epoch observation values (Epoch: 2025-11-08T19:36:22.935Z)
Latitude
-0.00006°
Longitude
101.02184°
Altitude
928.841 km
Speed
7.416 km/s
True Right ascension
05h 33m 26s
True Declination
0° 00' 00"
Sunlit
Object was in full shadow at epoch
Visualization orbit readout
Latitude
Unknown
Longitude
Unknown
Altitude
Unknown
Speed
Unknown
Apparent Right ascension
Unknown
Apparent Declination
Unknown
Sunlit
N/A
Visualization observer readout
Local Sidereal Time
03:10:39
Azimuth
Unknown
Elevation
Unknown
Doppler factor
Unknown
Orbital elements
Apogee altitude
1,161.765 km
Perigee altitude
796.76 km
Semi-major axis
7,357.4 km
Eccentricity
0.02481
Inclination
98.8121°
RAAN
83.3585°
Arg. of periapsis
286.6336°
True anomaly
73.48207°
Mean anomaly
70.7715°
Eccentric anomaly
72.12413°
Mean motion
3.43919 °/min
Orbital period
104.68 mins
BSTAR
0.00054829
Loading maneuver chart data...
Computing Atmospheric mass density...
Loading historical data...
Loading historical data...
Loading historical data...
Loading historical data...
Loading historical data...
Loading historical data...
Loading historical data...

Documentation

Showing up to 5 results
|